Weather History for KFDY - October, 2011

Change the Weather History Date:

Sunday, October 2, 2011

  Actual Average Record
Temperature  
Mean Temperature 48 °F -  
Max Temperature 60 °F 68 °F 86 °F (1953)
Min Temperature 37 °F 47 °F 28 °F (2003)
Degree Days  
Heating Degree Days 16    
Moisture  
Dew Point 35 °F    
Average Humidity 65    
Maximum Humidity 93    
Minimum Humidity 33    
Precipitation  
Precipitation 0.00 in - - ()
Sea Level Pressure  
Sea Level Pressure 30.10 in    
Wind  
Wind Speed 9 mph (NNW)    
Max Wind Speed 17 mph    
Max Gust Speed 26 mph    
Visibility 10 miles    
Events      
Averages and records for this station are not official NWS values.
T = Trace of Precipitation, MM = Missing Value Source: NWS Daily Summary

Daily Weather History Graph

Daily Weather History Graph

Search for Another Location

Airport or City:

Trip Planner

Search our weather history database for the weather conditions in past years. The results will help you decide how hot, cold, wet, or windy it might be!

Date:

Astronomy

Oct. 02, 2011 Rise Set
Actual Time 7:32 AM EDT 7:15 PM EDT
Civil Twilight 7:04 AM EDT 7:42 PM EDT
Nautical Twilight 6:32 AM EDT 8:14 PM EDT
Astronomical Twilight 6:00 AM EDT 8:46 PM EDT
Moon 1:40 PM EDT (10/2) 11:10 PM EDT (10/2)
Length of Visible Light 12h 38m
Length of Day
11h 43m
Waxing Crescent, 34% of the Moon is Illuminated
Oct 2
Waxing Crescent
Oct 3
First Quarter
Oct 11
Full
Oct 19
Last Quarter
Oct 26
New

Hourly Weather History & Observations

Time (EDT) Temp. Windchill Dew Point Humidity Pressure Visibility Wind Dir Wind Speed Gust Speed Precip Events Conditions
12:53 AM 39.9 °F 34.5 °F 35.1 °F 83% 30.16 in 10.0 mi NW 8.1 mph - N/A   Clear
1:53 AM 39.0 °F 34.8 °F 35.1 °F 86% 30.14 in 10.0 mi NW 5.8 mph - N/A   Clear
2:53 AM 37.9 °F 32.7 °F 35.1 °F 89% 30.14 in 10.0 mi NW 6.9 mph - N/A   Clear
3:53 AM 39.0 °F 33.4 °F 35.1 °F 86% 30.13 in 10.0 mi NW 8.1 mph - N/A   Clear
4:53 AM 37.0 °F 31.6 °F 35.1 °F 93% 30.14 in 10.0 mi NW 6.9 mph - N/A   Partly Cloudy
6:53 AM 37.0 °F 32.4 °F 34.0 °F 89% 30.14 in 10.0 mi NW 5.8 mph - N/A   Clear
7:53 AM 37.0 °F 29.8 °F 35.1 °F 93% 30.14 in 10.0 mi NW 10.4 mph - N/A   Clear
8:53 AM 41.0 °F 35.2 °F 36.0 °F 82% 30.16 in 10.0 mi NNW 9.2 mph - N/A   Clear
9:53 AM 45.0 °F 39.3 °F 39.0 °F 80% 30.16 in 10.0 mi NNW 11.5 mph - N/A   Clear
12:53 PM 55.9 °F - 37.0 °F 49% 30.11 in 10.0 mi North 16.1 mph 25.3 mph N/A   Clear
2:53 PM 59.0 °F - 33.1 °F 38% 30.06 in 10.0 mi NNW 17.3 mph 26.5 mph N/A   Clear
3:53 PM 60.1 °F - 30.9 °F 33% 30.04 in 10.0 mi NNW 12.7 mph 26.5 mph N/A   Clear
5:53 PM 59.0 °F - 30.9 °F 35% 30.03 in 10.0 mi NNW 15.0 mph - N/A   Partly Cloudy
6:53 PM 59.0 °F - 30.0 °F 33% 30.04 in 10.0 mi NNW 12.7 mph - N/A   Overcast
7:53 PM 57.0 °F - 33.1 °F 40% 30.04 in 10.0 mi North 8.1 mph - N/A   Overcast
8:53 PM 55.0 °F - 34.0 °F 45% 30.05 in 10.0 mi NNW 8.1 mph - N/A   Overcast
9:53 PM 54.0 °F - 35.1 °F 49% 30.07 in 10.0 mi North 5.8 mph - N/A   Overcast
10:53 PM 52.0 °F - 39.0 °F 61% 30.08 in 10.0 mi NNE 5.8 mph - N/A   Mostly Cloudy
11:53 PM 51.1 °F - 41.0 °F 68% 30.09 in 10.0 mi NW 4.6 mph - N/A   Overcast